星链-35697(STARLINK-35697)

导读 | 豆包AI

STARLINK-35697是美国SpaceX星链星座中的一颗卫星,于2025年11月19日发射升空。星链项目旨在构建全球卫星互联网星座,为全球用户提供低延迟、高速率的宽带互联网服务。该卫星继承星链技术路线,加入低轨星座网络,进一步补充星链全球覆盖能力,推动太空互联网基础设施建设。

Basic Information
目录编号:
66539
目录名称:
STARLINK-35697
国际标识:
2025-265Z
轨道中心:
EARTH
卫星名称:
星链-35697
卫星全名:
星链-35697(STARLINK-35697)
卫星状态:
在轨 (已飞行115 天)
发射日期:
2025-11-19 UTC
国别 :
美国 (US)
星等 :
--
Orbit Information
数据来源 国际轨道数据 AOE轨道数据
星历时间 2026-03-14T04:48:58+0800
12小时前
查看轨道信息
2026-03-12T16:00:00+0800
2天前
查看轨道信息
半长轴 6861.151km 6861.222km
偏心率 0.0001742 0.0001304
轨道倾角 42.998° 42.998°
近地点辐角 276.823° 272.733°
升交点赤经 254.223° 262.886°
平近点角 83.242° 281.493°
近地点 481.818km 482.19km
远地点 484.21km 483.98km
周期 94.266分钟 94.267分钟
每日圈数 15.275919 15.275682
Detailed Information
固有亮度:
5
最大亮度:
2.5
卫星平台:
Starlink V1.0
覆盖范围:
全球
运营商:
太空探索技术公司
运营商所在国:
美国
制造商(研发单位):
太空探索技术公司
制造商所在国:
美国
使用方式:
暂无
Satellite Introduction
Starlink 计划是 SpaceX 推出的全球卫星互联网项目,通过发射低轨道卫星,为全球尤其是偏远地区提供高速、低延迟的互联网服务。自 2019 年起,Starlink 已部署数千颗卫星,旨在缩小全球数字鸿沟,推动互联网普及。该项目还为军事、航空等行业提供通信支持,带来广泛经济效益。
2D Orbit Map
3D Orbit Map
Orbit Altitude Analysis Chart
Orbit Inclination Analysis Chart
Orbit Comprehensive Analysis Chart
View Comprehensive Chart